Other Surface Observations
Issued by NWS Charleston, SC

Home | Current Version | Previous Version | Text Only | Print | Product List | Glossary On
Versions: 1 2 3 4 5 6 7 8 9 10 11 12 13 14 15 16 17 18 19 20 21 22 23 24 25 26 27 28 29 30 31 32 33 34 35 36 37 38 39 40 41 42 43 44 45 46 47 48 49 50
000
SXUS52 KCHS 010725
OSOCHS

MARINE OBSERVATIONS
NATIONAL WEATHER SERVICE CHARLESTON SC
300 AM EDT MON SEP 01 2014

...DOWNTOWN CHARLESTON AND HARBOR...

CITY           SKY/WX    TMP DP  RH WIND       PRES   REMARKS
WATERFRONT PRK   N/A     82 N/A N/A S7          N/A
FORT JOHNSON   NOT AVBL

...LAKE MOULTRIE...

CITY           SKY/WX    TMP DP  RH WIND       PRES   REMARKS
PINOPOLIS        N/A     81  75  83 S3        30.01F

...LAKE AND SUPPLEMENTAL COASTAL OBSERVATIONS...

STATION/POSITION TIME  TEMP    WIND        PRES    WAVE   SWELL
                       AIR SEA DIR/SP/G            HT/PER HT/PER/DIR
                 (UTC) (F)     (DEG/KT/KT) (MB)    (FT/S) (FT/S/D)
FORT PULASKI     0700   81     210/  4/  6 1018.8F
SAPELO ISLAND    0700   77     190/  4     1019.0S
UPR LAKE MARION  NOT AVBL
WINYAH BAY       0700   79     240/  2     1018.0F
LAKE MURRAY      0700   78     210/  8/ 10 1018.3S
ACE BASIN NERRS  0700   79        CALM     1019.0S


...C-MAN AND BUOY OBSERVATIONS...

STATION/POSITION TIME  TEMP    WIND        PRES    WAVE   SWELL
                       AIR SEA DIR/SP/G            HT/PER HT/PER/DIR
                 (UTC) (F)     (DEG/KT/KT) (MB)    (FT/S) (FT/S/D)
BUOY 41004       0700   82 83  220/ 10/ 12 1018.7F   2/ 9   2/ 9
BUOY 41008       0700   83 85  250/ 12/ 16 1018.7F   2/10   2/110/10
FOLLY BEACH CMAN 0700   82     200/ 10/ 12 1019.3F
CAPERS NS BUOY   NOT AVBL
FRIPP NS BUOY    NOT AVBL
5E ST. MARYS GA  0700      84                N/A     2/ 9
FRYING PAN BUOY  NOT AVBL
BUOY 41025       0700   81     200/ 16/ 19 1019.4F   3/ 8   2/120/ 8
CAPE LOOKOUT NC  0700   81     200/  8/ 11 1019.0F
BUOY 41002       0626   81 83  190/  8/ 10 1021.3F   3/ 8   3/120/ 8
BUOY 41010       0700   83 84  160/  4/  6 1019.8F   3/ 9   3/100/ 9
BUOY 41012       NOT AVBL
ST AUGUSTINE FL  0700   79     200/  7/  8 1019.6F


$$



USA.gov is the U.S. government's official web portal to all federal, state and local government web resources and services.